www.pogodaiklimat.ru

Погода и климат >> Архив погоды >> Австралия >> Квинсленд >> Хьюэнден


ПОГОДА в Хьюэндене

  • Прогноз погоды в Хьюэндене
  • Монитор погоды в Хьюэндене

АРХИВ ПОГОДЫ в Хьюэндене

Время (UTC), дата Ветер
(напр.,м/с)
 
Видим.   Явления Облачность Т
(С)
Тd
(С)
f
(%)
Тe
(С)
Тes
(С)
Комфортность P
(гПа)
Po
(гПа)
Тmin
(С)
Tmax
(С)
R
(мм)
R24
(мм)
S
(см)
02 12.02 З 4 н/о н/о +33.2 +8.6 22 +32 +32 жарко 1007.2 972.1 +18.4
05 12.02 З 7 н/о н/о +34.3 +8.8 21 +33 +33 жарко 1004.8 969.8
08 12.02 З 6 н/о н/о +33.1 +9.8 24 +32 +32 жарко 1005.2 970.2
11 12.02 штиль 0 н/о н/о +26.6 +15.9 52 +30 +30 душно 1006.2 971.1
14 12.02 СВ 2 н/о н/о +23.9 +17.4 67 +28 +28 душно 1006.6 971.5 +35.1
17 12.02 штиль 0 н/о н/о +21.1 +17.3 79 +25 +25 комфорт 1005.4 970.4
20 12.02 СВ 1 н/о н/о +19.9 +16.7 82 +24 +24 комфорт 1006.5 971.4
23 12.02 СЗ 6 н/о н/о +29.1 +16.6 47 +33 +33 очень
душно
1008.8 973.7
02 13.02 З 6 н/о н/о +32.9 +16.7 38 +36 +36 очень
душно
1007.5 972.4 +19.9
05 13.02 З 6 н/о н/о +35.8 +13.3 26 +36 +36 очень
жарко
1005.9 970.9
08 13.02 ЮЗ 4 н/о н/о +34.8 +14.7 30 +36 +36 душно 1005.6 970.6
11 13.02 штиль 0 н/о н/о +29.4 +19.1 54 +35 +35 очень
душно
1007.0 971.9
14 13.02 штиль 0 н/о н/о +26.0 +20.6 72 +32 +32 очень
душно
1006.9 971.8 +36.5
17 13.02 ЮЗ 2 н/о 6/6 300 м
[]
+25.1 +17.6 63 +29 +29 душно 1006.4 971.3
20 13.02 З 2 8000 м 10/10 600 м
[]
+23.1 +17.1 69 +28 +28 душно 1007.5 972.4
23 13.02 ЮЗ 2 7000 м 9/9 600 м
[]
+27.9 +9.2 31 +28 +29 жарко 1009.7 974.5
02 14.02 Ю 1 7000 м 9/9 600 м
[]
+33.5 +8.2 21 +32 +35 жарко 1008.8 973.7 +22.8
05 14.02 ЮЗ 5 н/о 4/0
[]
+35.7 +10.0 21 +35 +40 очень
жарко
1007.1 972.0
08 14.02 Ю 5 н/о н/о +34.4 +9.6 22 +33 +33 жарко 1007.0 971.9
11 14.02 ЮЗ 3 н/о н/о +28.8 +10.5 32 +29 +29 жарко 1009.7 974.5
14 14.02 Ю 3 н/о н/о +25.8 +10.0 37 +27 +27 жарко 1010.2 975.0 +36.5
17 14.02 В 2 н/о н/о +22.8 +12.7 53 +26 +26 жарко 1009.5 974.3
20 14.02 С 3 н/о н/о +21.4 +13.1 59 +24 +24 комфорт 1010.6 975.4
23 14.02 СВ 4 н/о н/о +29.8 +7.7 25 +29 +29 жарко 1011.5 976.3
02 15.02 Ю 2 н/о н/о +34.2 +7.3 19 +32 +32 жарко 1010.9 975.7 +21.0
05 15.02 ЮЗ 2 н/о н/о +36.6 +6.7 16 +34 +34 очень
жарко
1008.4 973.3
08 15.02 ЮЗ 4 н/о н/о +35.2 +8.9 20 +34 +34 очень
жарко
1007.8 972.7
11 15.02 СВ 4 н/о н/о +29.6 +13.8 38 +31 +31 жарко 1010.8 975.6
14 15.02 СВ 3 н/о 10/0
[]
+27.2 +16.5 52 +31 +31 душно 1011.1 975.9 +37.2
17 15.02 В 3 н/о н/о +25.4 +16.8 59 +29 +29 душно 1009.8 974.6
20 15.02 СВ 4 н/о н/о +25.3 +17.2 61 +29 +29 душно 1011.0 975.8
23 15.02 СВ 7 н/о н/о +28.6 +16.8 49 +32 +32 душно 1012.5 977.2
02 16.02 СВ 5 н/о 1/0
[]
+33.4 +14.0 31 +35 +45 душно 1011.2 976.0 +24.8
05 16.02 СВ 4 н/о 1/0
[]
+35.5 +13.6 27 +36 +46 очень
жарко
1008.0 972.9
08 16.02 СЗ 5 н/о 10/0
[]
+30.5 +15.4 40 +33 +33 душно 1007.7 972.6
11 16.02 СВ 2 н/о 5/0
[]
+28.4 +17.3 51 +32 +32 душно 1009.7 974.5
14 16.02 СВ 3 н/о 3/0
[]
+26.4 +17.7 59 +31 +31 душно 1009.9 974.7 +36.3
17 16.02 С 3 н/о 1/0
[]
+25.6 +17.8 62 +30 +30 душно 1008.0 972.9
20 16.02 СВ 3 н/о 10/0
[]
+25.5 +17.4 61 +30 +30 душно 1009.2 974.0
23 16.02 С 2 н/о 10/0
[]
+28.4 +17.3 51 +32 +37 душно 1010.8 975.6
02 17.02 СЗ 4 4000 м 3/0
[]
+33.4 +16.7 37 +36 +48 очень
душно
1009.7 974.5 +25.3
05 17.02 ЮЗ 5 н/о 1/0 2000 м
[]
+34.8 +14.1 29 +36 +43 душно 1006.5 971.4
08 17.02 Ю 5 н/о 10/0
[]
+34.6 +11.7 25 +34 +35 очень
жарко
1005.5 970.5
11 17.02 В 3 н/о 9/0
[]
+30.3 +17.4 46 +34 +34 очень
душно
1007.5 972.4
14 17.02 СВ 3 н/о н/о +26.7 +18.6 61 +32 +32 очень
душно
1007.7 972.6 +35.8
17 17.02 С 3 н/о 9/0
[]
+25.9 +19.1 66 +31 +31 очень
душно
1006.9 971.8
20 17.02 штиль 0 н/о н/о +23.9 +19.2 75 +29 +29 душно 1007.8 972.7
23 17.02 З 7 н/о н/о +29.4 +19.4 55 +35 +35 очень
душно
1010.1 974.9
02 18.02 СЗ 6 н/о н/о +33.4 +18.0 40 +38 +38 очень
душно
1008.6 973.5 +23.9
05 18.02 З 5 н/о 6/0 2000 м
[]
+35.4 +16.7 33 +38 +43 очень
душно
1005.8 970.8
08 18.02 ЮЗ 5 н/о н/о +34.9 +15.7 32 +37 +37 очень
душно
1005.3 970.3
11 18.02 СВ 3 н/о 9/0
[]
+29.5 +18.3 51 +34 +34 очень
душно
1007.3 972.2
14 18.02 штиль 0 н/о н/о +26.3 +19.4 66 +32 +32 очень
душно
1007.0 971.9 +36.2
17 18.02 штиль 0 н/о н/о +24.8 +20.1 75 +30 +30 душно 1006.0 971.0
20 18.02 СЗ 3 н/о н/о +25.5 +19.9 71 +31 +31 очень
душно
1007.2 972.1
23 18.02 СЗ 7 н/о н/о +29.7 +20.0 56 +36 +36 очень
душно
1008.9 973.8
02 19.02 З 7 н/о н/о +33.2 +18.9 43 +38 +38 очень
душно
1007.7 972.6 +24.1

 

Местоположение метеостанции Хьюэнден (Квинсленд, Австралия): широта -20.82 долгота 144.23 высота над уровнем моря 316 м.

В архиве по умолчанию представлена погода в Хьюэндене за последнюю неделю. Архивные данные за месяц целиком и за предыдущие месяцы, начиная с января 2011 года, Вы можете получить, выбрав интересующий диапазон дат из раскрывающегося списка и нажав кнопку "Ввод!".


*Определитесь, кто Вы:
робот инопланетянин человек

Внимание! Время в таблицах - всемирное. Для получения местного времени необходимо прибавить поправку, которая равна 10 ч.

Смотрите также архив погоды в соседних городах и на ближайших метеорологических станциях:

Погода в Ричмонде (Квинсленд, Австралия) (117 км)
Погода в Уинтоне (Квинсленд, Австралия) (209 км)
Погода в Джулия Крик (Квинсленд, Австралия) (261 км)
Погода в Вулшеде (Квинсленд, Австралия) (286 км)
Погода в Джорджтауне (Квинсленд, Австралия) (290 км)
Погода в Лонгриче (Квинсленд, Австралия) (290 км)
Погода в Таунсвилле (Квинсленд, Австралия) (317 км)
Погода в Лусинде (Квинсленд, Австралия) (342 км)
Погода в Эре (Квинсленд, Австралия) (355 км)
Погода в Аэропорту Трепелл (Квинсленд, Австралия) (365 км)

Пояснения к столбцам:

Ветер - указаны скорость ветра в м/с - средняя за 10 мин, порывы в срок и между сроками (в фигурных скобках) и направление, откуда дует ветер: С - северный, СВ - северо-восточный, В - восточный, ЮВ - юго-восточный, Ю - южный, ЮЗ - юго-западный, З - западный, СЗ - северо-западный.
Видимость - горизонтальная дальность видимости в метрах или километрах. При видимости от 1 до 10 км при отсутствии осадков обычно наблюдается дымка, при ухудшении видимости до 1 км и менее - туман. В сухую погоду видимость может ухудшаться дымом, пылью или мглою.
Явления - указаны атмосферные явления, наблюдавшиеся в срок или в последний час перед сроком; фигурными скобками обозначены явления, наблюдавшиеся между сроками (за 1-3 часа до срока); квадратными скобками обозначены град или гололедные отложения с указанием их диаметра в мм.
Облачность - указаны через наклонную черту общая и нижняя облачность в баллах и высота нижней границы облаков в метрах; квадратными скобками обозначены формы облаков: Ci - перистые, Cs - перисто-слоистые, Cc - перисто-кучевые, Ac - высококучевые, As - высокослоистые, Sc - слоисто-кучевые, Ns - слоисто-дождевые, Cu - кучевые, Cb - кучево-дождевые. Подробнее классификацию облаков см. в Атласе облаков (PDF).
T - Температура воздуха - температура, измеренная на высоте 2 м над землей.
Td - Температура точки росы - температура, при понижении до которой содержащийся в воздухе водяной пар достигнет насыщения.
f - Относительная влажность воздуха - влажноcть воздуха, измеренная на высоте 2 м над землей.
Te - Эффективная температура - температура, которую ощущает одетый по сезону человек в тени. Характеристика душности погоды. При расчете учитывается влияние влажности воздуха и скорости ветра на теплоощущения человека.
Tes - Эффективная температура на солнце - температура, которую ощущает человек, с поправкой на солнечный нагрев. Характеристика знойности погоды. Зависит от высоты солнца над горизонтом, облачности и скорости ветра. Ночью, в пасмурную погоду, а также при ветре 12 м/с и более поправка равна нулю.
P - Атмосферное давление - приведенное к уровню моря атмосферное давление.
Po - Атмосферное давление - измеренное на уровне метеостанции атмосферное давление.
Tmin - Минимальная температура - минимум температуры воздуха на высоте 2 м над землей.
Tmax - Максимальная температура - максимум температуры воздуха на высоте 2 м над землей.
R - Количество осадков - Количество выпавших осадков за период времени, мм. При наведении курсора мыши на число - период времени, за который выпало указанное количество осадков.
R24 - Количество осадков - Количество выпавших осадков за 24 часа, мм.
S - Снежный покров - Высота снежного покрова, см. При наведении курсора мыши на число - состояние снежного покрова и степень покрытия местности в баллах.